Location: Sungai Kamana Besar
(2.6333°N, 113.4333°E)
Time: 05:16:57
(UTC+00:00)

ARIANE 3 DEB - Pass Details

Date: 29 May 2022
Orbit: 273 x 4343 km, 6.7° (Epoch: 26 June)

Event Time Altitude Azimuth Distance (km) Brightness Sun altitude
Rises 11:50:29 0° 277° (W) 7,034 9.8 -19.0°
Reaches altitude 10° 11:56:27 10° 278° (W) 5,302 8.9 -20.4°
Maximum altitude 12:10:00 75° 2° (N) 1,328 4.6 -23.5°
Enters shadow 12:12:38 41° 78° (ENE) 1,480 4.5 -24.1°
